Current Version              Previous Version:    01  02  03  04  05  06  07  08  09  10  11  12  13  14  15  16  17  18  19  20  21  22  23  24  25  26  27  28  29  30  
   31  32  33  34  35  36  37  38  39  40  41  42  43  44  45  46  47  48  49  50  51  52  53  54  55  56  57  58  59  60  

[Printable]
594
ASUS44 KEWX 260002
RWRTX
SOUTH TEXAS REGIONAL WEATHER ROUNDUP
NATIONAL WEATHER SERVICE AUSTIN/SAN ANTONIO TX
700 PM CDT FRI JUL 25 2014

NOTE: "FAIR" INDICATED FEW OR NO CLOUDS BELOW 12,000 FEET WITH NO
SIGNIFICANT WEATHER AND/OR OBSTRUCTIONS TO VISIBILITY.

* - THESE STATIONS ARE NOT NWS OR FAA STATIONS...AND ARE NOT SUBJECT
    TO NWS AND FAA QUALITY CONTROL.

TXZ171-172-183>190-260100-
TEXAS HILL COUNTRY AND EDWARDS PLATEAU

CITY           SKY/WX    TMP DP  RH WIND       PRES   REMARKS
JUNCTION       SUNNY     94  63  35 SE13G20   29.95S HX  95
6HR MIN TEMP:  89; 6HR MAX TEMP:  97;

*LLANO         SUNNY     97  63  32 SE8       29.96S HX  98
BURNET         SUNNY     93  62  35 SE8       29.97S HX  93
6HR MIN TEMP:  91; 6HR MAX TEMP:  96;

*HORSESHOE BAY SUNNY     94  60  31 SE8       29.94S HX  94
6HR MIN TEMP:  91; 6HR MAX TEMP:  98;

*KERRVILLE     MOSUNNY   93  65  38 SE8       29.97S HX  95
*FREDERICKSBRG SUNNY     92  60  34 SE9       29.98S HX  91
6HR MIN TEMP:  89; 6HR MAX TEMP:  95;

*ROCKSPRINGS   SUNNY     91  61  35 SE7       30.02S HX  91
*BOERNE STAGE  SUNNY     91  61  35 S5        29.98S HX  91
*CASTROVILLE   SUNNY     96  61  31 S6        29.94S HX  96
HONDO          MOSUNNY   93  65  39 S8        29.94S HX  95
6HR MIN TEMP:  89; 6HR MAX TEMP:  95;

*UVALDE        SUNNY     96  64  34 E12       29.93R HX  97
6HR MIN TEMP:  89; 6HR MAX TEMP:  98;

DEL RIO        PTSUNNY   99  63  30 SE9       29.87R HX 101
6HR MIN TEMP:  93; 6HR MAX TEMP: 100;

LAUGHLIN AFB   NOT AVBL
CARRIZO SPRGS  PTSUNNY   86  68  54 S17G26    29.89R
$$

TXZ173-191>194-202-209-217>225-228-260100-
CENTRAL AND SOUTH CENTRAL TEXAS

CITY           SKY/WX    TMP DP  RH WIND       PRES   REMARKS
GEORGETOWN     MOSUNNY   93  68  43 SE8       29.93S HX  97
AUSTIN/BERGSTM MOSUNNY   96  66  37 SE8       29.92S HX  99
6HR MIN TEMP:  91; 6HR MAX TEMP:  97;

AUSTIN/MABRY   MOSUNNY   93  67  42 E6        29.93F HX  96
6HR MIN TEMP:  89; 6HR MAX TEMP:  96;

*AUSTIN/EXEC   SUNNY     93  68  43 SE7       29.94S HX  97
*LAGO VISTA    SUNNY     94  62  33 SE7       29.97S HX  94
SAN MARCOS     SUNNY     97  63  32 SE6       29.93S HX  98
NEW BRAUNFELS  SUNNY     95  63  34 S8        29.91F HX  96
6HR MIN TEMP:  91; 6HR MAX TEMP:  98;

RANDOLPH AFB   SUNNY     95  62  33 S9        29.93S HX  96
6HR MIN TEMP:  91; 6HR MAX TEMP:  97;

PT SAN ANTONIO SUNNY     94  65  37 SE5       29.92S HX  97
6HR MIN TEMP:  90; 6HR MAX TEMP:  95;

SAN ANTONIO    MOSUNNY   94  66  39 VRB5      29.93F HX  97
6HR MIN TEMP:  89; 6HR MAX TEMP:  95;

STINSON FIELD  SUNNY     96  65  35 SE7       29.91S HX  98
6HR MIN TEMP:  91; 6HR MAX TEMP:  97;

*PLEASANTON    MOSUNNY   90  68  47 SE13G22   29.93R HX  94
6HR MIN TEMP:  90; 6HR MAX TEMP:  99;

*LA GRANGE     MOSUNNY   95  72  47 SE6       29.92R HX 103
6HR MIN TEMP:  89; 6HR MAX TEMP:  97;

*GIDDINGS      SUNNY     93  67  41 CALM      29.97S HX  96
*GONZALES      PTSUNNY   98  68  38 SE12      29.90S HX 102
$$

TXZ163>164-176>182-195>201-210>213-226-227-235-260100-
SOUTHEAST TEXAS

CITY           SKY/WX    TMP DP  RH WIND       PRES   REMARKS
COLLEGE STN    SUNNY     91  70  49 SE7       29.94S HX  96
6HR MIN TEMP:  89; 6HR MAX TEMP:  94;

*BRYAN         SUNNY    N/A N/A N/A SE6       29.94S
*CALDWELL      PTSUNNY   93  66  40 SE7       29.97S HX  96
*CROCKETT        N/A     93  75  55 SE3       29.98S HX 104
*BRENHAM       SUNNY     92  68  45 SE7       29.95S HX  96
HUNTSVILLE     SUNNY     91  69  48 S5        29.96S HX  96
6HR MIN TEMP:  89; 6HR MAX TEMP:  94;

CONROE         SUNNY     89  75  63 SE3       29.96S HX  99
6HR MIN TEMP:  89; 6HR MAX TEMP:  94;

HOUSTON BUSH   MOSUNNY   90  73  57 SE14      29.95R HX  98
6HR MIN TEMP:  89; 6HR MAX TEMP:  95;

HOUSTON HOBBY  MOSUNNY   87  72  60 S12       29.96R HX  93
6HR MIN TEMP:  87; 6HR MAX TEMP:  93;

*HOUSTON SW AP PTSUNNY   84  72  66 SE9       29.97R HX  90
6HR MIN TEMP:  84; 6HR MAX TEMP:  94;

PEARLAND       MOSUNNY   84  70  62 S8        29.98R
6HR MIN TEMP:  84; 6HR MAX TEMP:  94;

HOUSTON HOOKS  PTSUNNY   92  73  53 CALM      29.94S HX 100
6HR MIN TEMP:  88; 6HR MAX TEMP:  96;

ELLINGTON FLD  MOSUNNY   90  72  55 S13       29.98R HX  96
SUGAR LAND     MOSUNNY   88  75  65 S14       29.95R HX  97
6HR MIN TEMP:  88; 6HR MAX TEMP:  94;

*HOUSTON EXEC  PTSUNNY   90  73  58 SE8       29.96R HX  98
*CLEVELAND MUN MOSUNNY   88  79  73 CALM      29.96S HX 103
*WHARTON       SUNNY     89  72  57 S13       29.96S HX  95
6HR MIN TEMP:  89; 6HR MAX TEMP:  94;

$$

TXZ214>216-236>238-260100-
THE UPPER TEXAS COAST

CITY           SKY/WX    TMP DP  RH WIND       PRES   REMARKS
*ORANGE        MOSUNNY   88  74  63 W3        29.98R HX  96
6HR MIN TEMP:  88; 6HR MAX TEMP:  92;

PORT ARTHUR    MOSUNNY   87  74  64 S7        29.96R HX  95
6HR MIN TEMP:  85; 6HR MAX TEMP:  93;

GALVESTON      SUNNY     87  76  69 S14       29.98R HX  97
6HR MIN TEMP:  87; 6HR MAX TEMP:  92;

ANGLETON       MOSUNNY   87  75  67 S15       29.97R HX  96
6HR MIN TEMP:  85; 6HR MAX TEMP:  91;

*BAY CITY      SUNNY     89  75  63 S10       29.97R HX  99
PALACIOS       SUNNY     87  75  67 S13       29.96S HX  96
6HR MIN TEMP:  87; 6HR MAX TEMP:  93;

$$

TXZ229>234-239>247-260100-
TEXAS COASTAL BEND AND RIO GRANDE PLAINS

CITY           SKY/WX    TMP DP  RH WIND       PRES   REMARKS
VICTORIA       SUNNY     91  71  51 S16       29.95R HX  97
6HR MIN TEMP:  84; 6HR MAX TEMP:  99; 6HR PCP:  0.04;

*BEEVILLE      SUNNY     91  68  46 SE13      29.94R HX  95
6HR MIN TEMP:  88; 6HR MAX TEMP:  99;

ROCKPORT       MOSUNNY   87  76  69 SE14G21   29.94S HX  97
6HR MIN TEMP:  87; 6HR MAX TEMP:  91;

*PORT ARANSAS  SUNNY     85  77  77 S12       29.95F HX  96
6HR MIN TEMP:  85; 6HR MAX TEMP:  89;

*PORT LAVACA   SUNNY     87  75  67 SE14      29.95R HX  96
6HR MIN TEMP:  81; 6HR MAX TEMP:  93; 6HR PCP:  0.14;

*INGLESIDE     MOSUNNY   89  75  62 S16       29.94F HX  99
CORPUS CHRISTI MOSUNNY   86  75  69 SE17      29.94S HX  95
6HR MIN TEMP:  73; 6HR MAX TEMP:  97; 6HR PCP:  0.07;

CORPUS NAS     MOSUNNY   87  77  72 SE16      29.95R HX  99
6HR MIN TEMP:  84; 6HR MAX TEMP:  93;

*ROBSTOWN      NOT AVBL
ALICE          PTSUNNY   84  72  67 SE12      29.92S
6HR MIN TEMP:  81; 6HR MAX TEMP: 101; 6HR PCP: TRACE;

KINGSVILLE NAS MOSUNNY   88  75  65 SE17      29.93R HX  97
6HR MIN TEMP:  82; 6HR MAX TEMP: 101; 6HR PCP:  0.02;

COTULLA        PTSUNNY   83  74  74 S7        29.92F
6HR MIN TEMP:  80; 6HR MAX TEMP: 102; 6HR PCP:  0.03;

*FAITH RANCH   PTSUNNY   91  66  43 SE21G31   29.91R HX  94
LAREDO         PTSUNNY   87  71  58 NE10      29.91F HX  92
6HR MIN TEMP:  82; 6HR MAX TEMP: 103; 6HR PCP: TRACE;

$$

TXZ248>255-260100-
DEEP SOUTH TEXAS

CITY           SKY/WX    TMP DP  RH WIND       PRES   REMARKS
BROWNSVILLE    SUNNY     89  73  59 SE21      29.95R HX  97
6HR MIN TEMP:  89; 6HR MAX TEMP:  97;

PORT ISABEL    SUNNY     90  73  57 SE20G28   29.94S HX  98
6HR MIN TEMP:  90; 6HR MAX TEMP:  97;

*SOUTH PADRE   SUNNY     86  79  79 S13       29.95S HX  99
HARLINGEN      SUNNY     91  71  51 S21G30    29.91S HX  97
6HR MIN TEMP:  91; 6HR MAX TEMP: 100;

*HEBBRONVILLE  MOSUNNY   88  72  59 NE13G22   29.91S HX  95
MCALLEN        SUNNY     95  62  33 SE18G29   29.90S HX  96
6HR MIN TEMP:  95; 6HR MAX TEMP: 102;

*WESLACO       SUNNY     95  60  31 SE18G28   29.90F HX  95
FALFURRIAS     PTSUNNY   88  72  59 E14G21    29.89R HX  94
6HR MIN TEMP:  88; 6HR MAX TEMP:  97;

EDINBURG       SUNNY     96  60  30 SE20      29.90R HX  96
6HR MIN TEMP:  96; 6HR MAX TEMP: 103;

*ZAPATA        PTSUNNY  104  52  17 SE8G16    29.84F HX 101
$$

TXZ213>215-236>238-242>244-246-247-251-254-255-260100-
CMAN STATIONS